Regional Weather Roundup
Issued by NWS Portland, ME

Home | Current Version | Previous Version | Text Only | Print | Product List | Glossary On
Versions: 1 2 3 4 5 6 7 8 9 10 11 12 13 14 15 16 17 18 19 20 21 22 23 24 25 26 27 28 29 30 31 32 33 34 35 36 37 38 39 40 41 42 43 44 45 46 47 48 49 50
940
ASUS41 KGYX 131810
RWRGYX
WEATHER ROUNDUP FOR MAINE AND NEW HAMPSHIRE
NATIONAL WEATHER SERVICE GRAY ME
100 PM EST SAT FEB 13 2016

MEZ002-005-006-010-012-015-018-020-021-024-026-027-029-131900-
MAINE

CITY           SKY/WX    TMP DP  RH WIND       PRES   REMARKS
PORTLAND       MOSUNNY   21   3  45 NW15      29.76F WCI   8
6HR MIN TEMP:   1; 6HR MAX TEMP:  22; 6HR PCP: TRACE;

SANFORD        SUNNY     18  -6  35 NW20G28   29.78S WCI   1
BAR HARBOR     CLOUDY    21  12  68 N9        29.69R
WISCASSET      CLOUDY    21   4  47 VRB7      29.76S
6HR MIN TEMP:   4; 6HR MAX TEMP:  24;

ROCKLAND       SNOW      13  10  88 MISG      29.72S VSB 1/2
FRYEBURG       MOSUNNY   17  -8  32 W14G25    29.77S WCI   3
6HR MIN TEMP:   0; 6HR MAX TEMP:  20;

LEWISTONAUBURN MOSUNNY   19  -6  32 NW14G20   29.74S WCI   6
AUGUSTA        LGT SNOW  16  10  77 N10       29.74S WCI   4
6HR MIN TEMP:  -1; 6HR MAX TEMP:  17; 6HR PCP: TRACE;

WATERVILLE     LGT SNOW  17   9  70 N9        29.72S
BANGOR         LGT SNOW  12   7  80 NW14      29.75R VSB 1   WCI  -3
6HR MIN TEMP:   2; 6HR MAX TEMP:  11; 6HR PCP: TRACE;

GREENVILLE       N/A      9   2  73 NW9G17    29.64S
6HR MIN TEMP:   4; 6HR MAX TEMP:  11; 6HR PCP:  0.04;

MILLINOCKET    LGT SNOW  13   3  64 NW8       29.76S
6HR MIN TEMP:  -8; 6HR MAX TEMP:  13; 6HR PCP: TRACE;

HOULTON        CLOUDY    13  -5  44 NE7       29.72F
6HR MIN TEMP: -22; 6HR MAX TEMP:  13;

PRESQUE ISLE   PTSUNNY   14  -3  47 NE6       29.75F
6HR MIN TEMP: -24; 6HR MAX TEMP:  16;

FRENCHVILLE    FLURRIES   7  -2  66 N3        29.70F
6HR MIN TEMP:  -5; 6HR MAX TEMP:   7; 6HR PCP: TRACE;

CARIBOU        CLOUDY     9  -3  58 W5        29.73F
6HR MIN TEMP: -12; 6HR MAX TEMP:   9;

$$

NHZ002-005-008-009-011-012-014-131900-
NEW HAMPSHIRE

CITY           SKY/WX    TMP DP  RH WIND       PRES   REMARKS
PORTSMOUTH     PTSUNNY   19  -2  40 W16G32    29.80R WCI   4
ROCHESTER      PTSUNNY   19  -3  38 NW15G28   29.77F WCI   5
6HR MIN TEMP:   4; 6HR MAX TEMP:  20;

NASHUA         PTSUNNY   21  -6  30 NW23      29.84S WCI   5
MANCHESTER     PTSUNNY   18  -8  31 NW18G25   29.82S WCI   2
6HR MIN TEMP:  10; 6HR MAX TEMP:  21; 6HR PCP: TRACE;

CONCORD        PTSUNNY   18  -7  32 W17G26    29.83F WCI   3
6HR MIN TEMP:   5; 6HR MAX TEMP:  19;

LACONIA        CLOUDY    12  -4  48 W16G25    29.83R WCI  -4
PLYMOUTH       PTSUNNY   12  -9  38 W13G21    29.86R WCI  -3
BERLIN         SUNNY      9  -8  46 W10G21    29.76S WCI  -5
6HR MIN TEMP:   3; 6HR MAX TEMP:  12; 6HR PCP: TRACE;

WHITEFIELD     MOSUNNY    9  -7  48 W16G22    29.81R WCI  -8
6HR MIN TEMP:   8; 6HR MAX TEMP:  11; 6HR PCP: TRACE;

JAFFREY        PTSUNNY   12  -8  40 W13G21    29.80S WCI  -3
6HR MIN TEMP:  12; 6HR MAX TEMP:  15;

KEENE          PTSUNNY   14 -11  31 W12G22    29.88S WCI   0
LEBANON        LGT SNOW   9  -1  64 NW14G23   29.89R WCI  -7
6HR MIN TEMP:   6; 6HR MAX TEMP:  16; 6HR PCP: TRACE;

MT WASHINGTON  BLWGSNOW -17 -17 100 W37G44      N/A  VSB 1/16WCI -51
6HR MIN TEMP: -16; 6HR MAX TEMP:  -9;

$$

VTZ005-007-008-131900-
VERMONT

CITY           SKY/WX    TMP DP  RH WIND       PRES   REMARKS
ST JOHNSBURY     N/A      5 -13  43 MISG      29.89R
MONTPELIER     LGT SNOW  -3 -13  62 N14G23    29.94R WCI -22
BURLINGTON     PTSUNNY   -1 -15  51 NW14      30.06R WCI -20
$$

MAZ007-012-024-CTZ003-RIZ002-NYZ038-NYZ072-131900-
SOUTHERN NEW ENGLAND AND NY

CITY           SKY/WX    TMP DP  RH WIND       PRES   REMARKS
BOSTON         PTSUNNY   22  -4  32 W22G31    29.84S WCI   6
WORCESTER      PTSUNNY   13  -4  46 W21G35    29.81R WCI  -5
NANTUCKET      PTSUNNY   26   9  48 NW22G29   29.81S WCI  12
PROVIDENCE     PTSUNNY   21  -6  30 NW14G29   29.87S WCI   8
HARTFORD       MOSUNNY   16  -3  43 NW24G36   29.95R WCI  -2
ALBANY         PTSUNNY    5 -15  39 NW26G43   30.11R WCI -18
NEW YORK CITY  PTSUNNY   20  -1  40 NW24G39   30.06S WCI   3
$$

ANZ081-ANZ082-ANZ150-NHZ014-MEZ023>029-131900-
COASTAL MARINE OBSERVATIONS

STATION/POSITION TIME  TEMP    WIND        PRES    WAVE
                       AIR SEA DIR/SP/G            HT/PER
                 (UTC) (F)     (DEG/KT/KT) (MB)    (FT/S)
MOUNT DESERT ROC 1800   23      40/ 15/ 17 1004.0R
MATINICUS ROCK   1800          320/ 26/ 28 1004.6F
ISLE OF SHOALS   1800   20     290/ 26/ 29 1007.6R
JEFFREYS LEDGE   1704      43                N/A     5/ 5
CASHES LEDGE BUO 1750   24 41  310/ 19/ 25 1005.1F   4/ 5
GEORGES BANK BUO 1650   33 44              1002.6    6/ 6
$$

.............KEY..............
   WCI - WIND CHILL
   TC  - TEMPERATURE IN CELSIUS
   VSB - VISIBILITY IN MILES
   HX  - HEAT INDEX
   FAIR- INDICATES FEW OR NO CLOUDS BELOW 12,000 FT, WITH NO
         SIGNIFICANT WEATHER AND/OR OBSTRUCTIONS TO VISIBILITY.






USA.gov is the U.S. government's official web portal to all federal, state and local government web resources and services.